Tracking 28790 objects as of 19-Apr-2024
HD Live streaming from Space Station
objects crossing your sky now

BEIDOU 3M14

Track BEIDOU 3M14 now!


NORAD ID: 43623
Int'l Code: 2018-072B
Perigee: 21,516.2 km
Apogee: 21,554.1 km
Inclination: 56.0 °
Period: 773.2 minutes
Semi major axis: 27906 km
RCS: Unknown
Launch date: September 19, 2018
Source: People's Republic of China (PRC)
Launch site: Xichang Space Center, China (XSC)
Your satellite tracking list
Your tracking list is empty




NASA's NSSDC Master Catalog

Two Line Element Set (TLE):
1 43623U 18072B   24109.54194026  .00000029  00000-0  00000+0 0  9993
2 43623  55.9502  88.8609 0006776 319.1702  40.7721  1.86231534 37941
Source of the keplerian elements: AFSPC